Location: Newark
(45.5000°N, 11.4167°E)
Time: 20:38:01
(UTC+00:00)

A-11 Canister half - Pass Details

Date: 22 August 2019
Orbit: 1514 x 1686 km, 47.2° (Epoch: 13 October)

Event Time Altitude Azimuth Distance (km) Brightness Sun altitude
Rises 15:58:42 0° 207° (SSW) 4,653 12.0 22.1°
Reaches altitude 10° 16:01:59 10° 199° (SSW) 3,686 11.4 21.5°
Maximum altitude 16:10:13 37° 136° (SE) 2,253 9.8 20.0°
Drops below altitude 10° 16:18:40 10° 74° (ENE) 3,804 10.6 18.6°
Sets 16:22:06 0° 67° (ENE) 4,817 11.0 18.0°
